Probability
0 0 0 0 0 0 0 0 0 0 0 0 0 0 0 0 0 0 0 0 0 0 0 0 0 0 0 0 0 0 0 0 0 0 0 0 0 0 0 0 0 0 0 0
0 0 0 0 0 0 0 0 0 0 0 0 0 0 0 0 0 0 0 0 0 0 0 0 0 0 0 0 0 0 0 0 0 0 0 0 0 0 0 0 0 0 0 0
0 0 0 0 0 0 0 0 0 0 0 0 0 0 0 0 0 0 0 0 0 0 0 0 0 0 0 0 0 0 0 0 0 0 0 0 0 0 0 0 0 0 0 0
0 0 0 0 0 0 0 0 0 0 0 0 0 0 0 0 0 0 0 0 0 0 0 0 0 0 0 0 0 0 0 0 0 0 0 0 0 0 0 0 0 0 0 0
0 0 0 0 0 0 0 0 0 0 0 0 0 0 0 0 0 0 0 0 0 0 0 0 0 0 0 0 0 0 0 0 0 0 0 0 0 0 0 0 0 0 0 0
0 0 0 0 0 0 0 0 0 0 0 0 0 0 0 0 0 0 0 0 0 0 0 0 0 0 0 0 0 0 0 0 0 0 0 0 0 0 0 0 0 0 0 0
0 0 0 0 0 0 0 0 0 0 0 0 0 0 0 0 0 0 0 0 0 0 0 0 0 0 0 0 0 0 0 0 0 0 0 0 0 0 0 0 0 0 0 0
0 0 0 0 0 0 0 0 0 0 0 0 0 0 0 0 0 0 0 0 0 0 0 0 0 0 0 0 0 0 0 0 0 0 0 0 0 0 0 0 0 0 0 0
0 0 0 0 0 0 0 0 0 0 0 0 0 0 0 0 0 0 0 0 0 0 0 0 0 0 0 0 0 0 0 0 0 0 0 0 0 0 0 0 0 0 0 0
0 0 0 0 0 0 0 0 0 0 0 0 0 0 0 0 0 0 0 0 0 0 0 0 0 0 0 0 0 0 0 0 0 0 0 0 0 0 0 0 0 0 0 0
0 0 0 0 0 0 0 0 0 0 0 0 0 0 0 0 0 0 0 0 0 0 0 0 0 0 0 0 0 0 0 0 0 0 0 0 0 0 0 0 0 0 0 0
0 0 0 0 0 0 0 0 0 0 0 0 0 0 0 0 0 0 0 0 0 0 0 0 0 0 0 0 0 0 0 0 0 0 0 0 0 0 0 0 0 0 0 0
0 0 0 0 0 0 0 0 0 0 0 0 0 0 0 0 0 0 0 0 0 0 0 0 0 0 0 0 0 0 0 0 0 0 0 0 0 0 0 0 0 0 0 0
0 0 0 0 0 0 0 0 0 0 0 0 0 0 0 0 0 0 0 0 0 0 0 0 0 0 0 0 0 0 0 0 0 0 0 0 0 0 0 0 0 0 0 0
0 0 0 0 0 0 0 0 0 0 0 0 0 0 0 0 0 0 0 0 0 0 0 0 0 0 0 0 0 0 0 0 0 0 0 0 0 0 0 0 0 0 0 0
0 0 0 0 0 0 0 0 0 0 0 0 0 0 0 0 0 0 0 0 0 0 0 0 0 0 0 0 0 0 0 0 0 0 0 0 0 0 0 0 0 0 0 0
0 0 0 0 0 0 0 0 0 0 0 0 0 0 0 0 0 0 0 0 0 0 0 0 0 0 0 0 0 0 0 0 0 0 0 0 0 0 0 0 0 0 0 0
0 0 0 0 0 0 0 0 0 0 0 0 0 0 0 0 0 0 0 0 0 0 0 0 0 0 0 0 0 0 0 0 0 0 0 0 0 0 0 0 0 0 0 0
0 0 0 0 0 0 0 0 0 0 0 0 0 0 0 0 0 0 0 0 0 0 0 0 0 0 0 0 0 0 0 0 0 0 0 0 0 0 0 0 0 0 0 0
0 0 0 0 0 0 0 0 0 0 0 0 0 0 0 0 0 0 0 0 0 0 0 0 0 0 0 0 0 0 0 0 0 0 0 0 0 0 0 0 0 0 0 0
0 0 0 0 0 0 0 0 0 0 0 0 0 0 0 0 0 0 0 0 0 0 0 0 0 0 0 0 0 0 0 0 0 0 0 0 0 0 0 0 0 0 0 0
0 0 0 0 0 0 0 0 0 0 0 0 0 0 0 0 0 0 0 0 0 0 0 0 0 0 0 0 0 0 0 0 0 0 0 0 0 0 0 0 0 0 0 0
0 0 0 0 0 0 0 0 0 0 0 0 0 0 0 0 0 0 0 0 0 0 0 0 0 0 0 0 0 0 0 0 0 0 0 0 0 0 0 0 0 0 0 0
0 0 0 0 0 0 0 0 0 0 0 0 0 0 0 0 0 0 0 0 0 0 0 0 0 0 0 0 0 0 0 0 0 0 0 0 0 0 0 0 0 0 0 0
0 0 0 0 0 0 0 0 0 0 0 0 0 0 0 0 0 0 0 0 0 0 0 0 0 0 0 0 0 0 0 0 0 0 0 0 0 0 0 0 0 0 0 0
0 0 0 0 0 0 0 0 0 0 0 0 0 0 0 0 0 0 0 0 0 0 0 0 0 0 0 0 0 0 0 0 0 0 0 0 0 0 0 0 0 0 0 0
0 0 0 0 0 0 0 0 0 0 0 0 0 0 0 0 0 0 0 0 0 0 0 0 0 0 0 0 0 0 0 0 0 0 0 0 0 0 0 0 0 0 0 0
Height
5552 5555 5558 5562 5565 5569 5573 5577 5581 5585 5589 5593 5594 5597 5600 5603 5606 5609 5612 5615 5618 5620 5623 5625 5627 5630 5632 5634 5635 5636 5637 5638 5639 5639 5640 5640 5640 5639 5639 5638 5637 5636 5635 5633
5545 5547 5550 5553 5557 5561 5564 5568 5571 5575 5580 5583 5585 5588 5590 5593 5596 5599 5602 5604 5607 5609 5612 5614 5616 5618 5620 5622 5623 5624 5625 5625 5626 5627 5627 5627 5627 5627 5626 5625 5624 5623 5622 5620
5538 5540 5542 5546 5550 5553 5556 5559 5562 5566 5571 5573 5576 5579 5581 5584 5586 5589 5591 5594 5596 5598 5601 5603 5605 5606 5608 5610 5611 5612 5613 5613 5613 5614 5614 5614 5614 5614 5614 5613 5612 5610 5609 5607
5531 5534 5536 5542 5542 5544 5546 5549 5552 5556 5560 5563 5566 5568 5571 5573 5576 5578 5581 5583 5585 5587 5589 5591 5593 5595 5596 5598 5599 5600 5600 5601 5601 5601 5601 5601 5601 5601 5600 5600 5599 5597 5595 5593
5524 5526 5529 5534 5535 5537 5538 5542 5544 5547 5550 5553 5556 5558 5561 5563 5565 5568 5570 5572 5574 5576 5578 5580 5581 5583 5584 5586 5586 5587 5588 5588 5588 5589 5589 5589 5589 5588 5587 5587 5586 5584 5582 5580
5518 5520 5523 5527 5528 5529 5531 5534 5536 5538 5540 5543 5546 5549 5553 5554 5555 5557 5559 5561 5563 5565 5566 5568 5569 5571 5572 5573 5574 5575 5575 5575 5576 5576 5576 5576 5576 5575 5574 5573 5572 5570 5569 5566
5511 5512 5515 5519 5520 5522 5525 5527 5528 5529 5531 5534 5536 5539 5542 5543 5545 5546 5548 5550 5552 5554 5555 5556 5558 5559 5560 5561 5562 5562 5563 5563 5563 5563 5563 5563 5563 5562 5561 5560 5559 5557 5555 5553
5504 5506 5511 5511 5513 5515 5516 5518 5519 5521 5523 5524 5527 5529 5531 5532 5534 5536 5537 5539 5541 5542 5544 5545 5546 5547 5548 5549 5550 5550 5550 5551 5551 5551 5550 5550 5549 5548 5547 5546 5545 5543 5542 5540
5498 5501 5502 5503 5504 5506 5507 5509 5510 5512 5514 5515 5517 5519 5521 5522 5524 5525 5527 5528 5530 5531 5532 5533 5535 5536 5537 5537 5537 5538 5538 5538 5538 5538 5538 5537 5536 5535 5534 5533 5531 5530 5529 5527
5490 5492 5494 5495 5496 5497 5499 5500 5501 5503 5505 5506 5508 5509 5510 5512 5513 5514 5516 5517 5518 5519 5521 5522 5523 5524 5524 5525 5525 5525 5526 5526 5526 5526 5525 5524 5524 5523 5522 5520 5519 5517 5516 5514
5483 5485 5486 5487 5488 5489 5490 5492 5493 5494 5495 5497 5498 5499 5500 5501 5502 5503 5504 5506 5506 5508 5509 5510 5511 5511 5512 5512 5513 5513 5513 5513 5513 5513 5513 5513 5512 5510 5509 5508 5506 5505 5504 5503
5476 5477 5479 5480 5481 5482 5483 5483 5484 5485 5486 5487 5488 5489 5490 5490 5491 5492 5493 5494 5495 5496 5497 5498 5498 5499 5499 5500 5501 5501 5501 5501 5502 5502 5501 5501 5500 5499 5497 5496 5495 5493 5492 5491
5469 5470 5471 5473 5473 5474 5475 5476 5476 5477 5478 5478 5479 5479 5480 5480 5481 5482 5482 5483 5484 5484 5485 5486 5487 5487 5488 5488 5489 5489 5489 5490 5490 5490 5489 5489 5488 5488 5487 5486 5484 5483 5481 5480
5462 5463 5464 5465 5466 5467 5467 5468 5468 5469 5469 5469 5470 5470 5470 5471 5471 5471 5472 5472 5473 5473 5474 5475 5475 5476 5476 5477 5477 5478 5478 5478 5478 5478 5478 5478 5477 5477 5476 5475 5474 5472 5471 5470
5456 5457 5458 5458 5459 5459 5460 5460 5460 5460 5460 5460 5461 5461 5461 5461 5462 5462 5462 5462 5462 5463 5463 5463 5464 5464 5464 5465 5466 5466 5466 5467 5467 5467 5467 5467 5466 5466 5465 5464 5463 5462 5461 5460
5450 5450 5451 5451 5452 5452 5452 5452 5452 5452 5452 5452 5452 5452 5452 5452 5452 5452 5452 5452 5452 5452 5453 5453 5453 5453 5453 5454 5454 5455 5455 5455 5456 5456 5456 5456 5455 5455 5454 5453 5453 5451 5451 5449
5443 5444 5444 5444 5445 5445 5445 5445 5445 5444 5444 5444 5443 5443 5443 5443 5443 5443 5442 5442 5442 5442 5442 5442 5442 5443 5443 5443 5444 5444 5444 5444 5444 5445 5445 5444 5444 5443 5443 5442 5442 5441 5440 5439
5437 5437 5437 5437 5437 5437 5437 5437 5436 5436 5435 5435 5435 5434 5434 5433 5433 5433 5432 5432 5432 5432 5431 5432 5432 5432 5433 5433 5434 5434 5434 5434 5434 5434 5434 5433 5433 5432 5432 5431 5431 5430 5430 5429
5430 5430 5430 5430 5430 5430 5430 5429 5429 5428 5427 5427 5426 5425 5425 5424 5424 5423 5423 5422 5422 5422 5422 5422 5422 5422 5423 5424 5424 5425 5425 5425 5424 5424 5424 5423 5423 5422 5421 5421 5421 5420 5419 5418
5423 5423 5423 5423 5423 5423 5423 5422 5421 5421 5420 5419 5418 5417 5416 5416 5415 5415 5414 5414 5413 5413 5413 5413 5413 5414 5414 5415 5415 5415 5415 5415 5415 5415 5415 5414 5414 5413 5412 5412 5411 5410 5409 5409
5416 5416 5416 5416 5416 5416 5416 5415 5414 5413 5412 5411 5410 5409 5409 5408 5407 5407 5406 5406 5405 5405 5405 5406 5406 5406 5406 5406 5406 5406 5406 5406 5406 5406 5406 5405 5405 5404 5404 5403 5402 5401 5400 5399
5411 5411 5410 5410 5410 5410 5409 5408 5407 5406 5405 5404 5403 5402 5401 5400 5399 5399 5398 5398 5398 5398 5398 5398 5398 5398 5398 5398 5398 5398 5398 5398 5398 5397 5397 5397 5396 5396 5395 5394 5394 5393 5392 5390
5405 5405 5404 5404 5404 5403 5402 5402 5401 5399 5398 5397 5396 5394 5393 5392 5392 5391 5391 5391 5391 5391 5391 5391 5391 5391 5391 5390 5390 5390 5390 5390 5389 5389 5389 5389 5388 5388 5387 5386 5386 5384 5383 5382
5399 5399 5399 5398 5398 5397 5396 5395 5394 5393 5392 5391 5389 5388 5387 5386 5385 5384 5384 5384 5384 5384 5383 5383 5383 5383 5383 5383 5383 5382 5382 5382 5382 5382 5381 5381 5380 5380 5379 5379 5378 5377 5376 5375
5393 5393 5393 5392 5392 5391 5390 5389 5388 5387 5386 5384 5383 5381 5380 5379 5379 5378 5377 5377 5377 5377 5376 5376 5376 5376 5375 5375 5375 5375 5375 5375 5375 5375 5375 5374 5374 5373 5373 5372 5371 5370 5369 5369
5388 5387 5387 5386 5386 5385 5384 5383 5382 5381 5380 5378 5377 5375 5374 5373 5373 5372 5371 5371 5370 5370 5370 5369 5369 5369 5368 5368 5368 5368 5368 5368 5368 5368 5368 5368 5367 5367 5366 5366 5365 5364 5364 5363
5382 5381 5381 5381 5380 5379 5378 5377 5376 5375 5373 5372 5371 5370 5369 5368 5367 5366 5365 5365 5364 5364 5364 5363 5363 5362 5362 5362 5361 5361 5361 5362 5362 5362 5362 5362 5361 5361 5360 5360 5360 5359 5359 5358
Wind_Speed
31 32 33 34 37 39 40 39 38 38 37 36 36 37 37 38 38 39 39 39 40 41 42 42 43 43 44 45 45 46 46 46 46 46 46 47 47 47 48 48 48 49 49 50
29 31 32 33 35 37 38 39 40 39 38 38 38 38 38 38 39 39 39 39 40 41 41 41 42 43 44 44 44 45 46 46 46 47 47 47 47 48 48 48 48 49 50 51
27 29 30 31 31 33 35 37 38 38 37 37 38 37 37 38 38 38 38 39 39 40 41 41 42 42 43 43 44 45 45 45 46 47 47 47 47 48 48 48 49 49 50 51
25 26 28 27 27 29 32 34 36 38 37 37 36 35 36 37 38 38 38 39 39 40 40 41 42 42 43 44 44 45 45 46 46 46 47 47 47 48 49 49 50 50 51 52
25 26 26 25 25 27 29 31 33 35 37 38 38 37 36 36 37 38 38 39 40 41 41 41 42 43 43 44 45 45 46 46 47 47 47 47 47 48 49 50 50 51 51 52
27 27 26 25 26 27 28 29 30 32 34 36 37 38 37 37 38 39 39 39 40 41 41 42 42 43 44 44 45 45 45 46 46 46 46 47 47 48 49 50 50 51 50 50
27 28 28 27 28 28 29 29 29 30 31 33 35 36 36 38 39 40 40 40 40 40 40 41 41 41 42 43 43 44 44 45 45 46 46 47 47 48 49 49 49 49 49 49
26 27 27 27 28 29 29 29 29 30 31 32 33 35 36 37 38 39 40 40 41 40 40 40 40 40 41 42 42 42 43 43 44 45 46 46 47 47 47 48 48 48 47 47
25 25 26 26 27 28 29 30 30 30 31 32 33 34 36 37 38 39 39 40 41 41 42 41 41 41 42 43 43 43 43 43 43 44 44 45 45 44 45 45 46 46 46 45
24 24 25 26 27 27 28 30 31 31 31 32 33 34 35 36 37 38 39 39 40 41 42 42 42 43 43 43 43 43 43 43 43 43 43 42 43 43 44 44 44 43 43 42
25 25 25 25 27 28 28 28 30 31 32 32 33 34 35 36 37 37 38 38 39 40 41 42 43 43 43 43 43 43 43 42 42 42 42 42 42 42 42 41 41 40 40 40
23 24 25 25 25 26 27 27 28 29 30 31 32 33 34 35 36 37 38 38 39 40 40 41 42 42 42 42 42 42 42 41 41 42 42 41 40 39 39 38 38 38 38 38
21 22 23 24 25 25 25 26 28 29 30 31 31 32 32 33 34 35 36 38 38 39 39 40 40 40 41 41 40 40 40 40 40 40 39 38 38 38 37 37 37 37 37 37
20 21 22 23 25 25 25 26 27 28 29 29 30 30 31 31 31 32 33 34 35 36 37 38 38 39 39 40 39 39 39 38 38 38 37 37 36 36 36 36 36 36 36 36
20 21 21 22 23 24 24 25 25 27 28 28 28 29 29 29 30 30 31 31 32 33 34 35 36 37 38 38 38 38 37 37 36 36 36 35 35 36 35 35 35 34 35 35
19 20 21 21 22 22 23 24 24 25 26 26 27 28 28 29 29 30 30 30 31 32 32 33 34 34 34 34 35 35 36 36 36 36 36 36 36 36 36 35 35 34 34 34
20 20 21 22 22 23 24 24 25 25 25 26 26 27 28 29 30 30 30 31 31 32 33 33 33 33 33 33 33 33 33 33 34 35 36 36 36 36 36 35 35 34 34 33
20 20 21 22 23 23 23 24 24 24 25 25 26 27 27 27 28 29 30 30 31 31 31 31 31 31 31 31 30 30 30 31 32 33 34 34 34 34 34 33 33 33 33 33
21 21 22 22 21 21 22 22 22 23 23 24 24 25 26 26 27 27 27 27 28 28 28 28 28 28 28 28 28 29 30 30 31 31 31 31 31 31 31 31 32 32 32 32
19 20 20 19 19 19 19 20 20 21 21 22 23 23 24 24 24 25 25 25 25 25 25 25 25 25 26 27 27 28 28 29 29 28 28 28 28 28 28 29 29 29 29 30
17 17 17 17 18 18 18 19 19 20 21 21 22 22 22 23 23 24 24 23 23 23 23 23 23 23 24 25 26 26 27 27 27 26 26 26 26 26 26 26 26 27 27 28
16 16 16 16 17 17 18 19 20 20 20 21 21 21 21 21 22 22 22 22 22 22 22 22 22 22 23 23 24 25 25 25 25 25 25 25 25 25 25 25 25 25 26 26
15 16 16 16 17 17 18 18 18 19 19 19 19 20 20 20 20 20 20 21 21 21 21 22 22 23 23 23 23 23 23 23 23 23 23 23 24 24 24 24 24 24 23 23
15 15 16 16 16 17 17 18 18 18 18 18 18 18 18 18 18 19 19 19 20 20 21 21 21 22 22 22 22 21 21 20 20 21 21 21 21 21 21 21 21 21 20 19
15 15 15 16 16 16 17 17 18 18 18 18 18 17 17 17 18 18 18 19 19 19 20 20 20 20 20 20 20 19 19 19 19 19 19 19 19 19 19 18 18 18 17 17
16 16 16 16 16 16 17 17 17 17 18 18 17 17 17 17 17 17 17 17 18 17 17 18 18 18 18 18 18 18 18 18 18 17 17 17 17 17 17 17 17 16 15 15
16 16 17 17 17 17 17 17 17 17 17 17 17 16 16 16 16 16 16 16 16 16 16 16 16 16 16 16 16 16 16 16 16 15 15 15 15 15 15 15 14 14 14 13
Wind_Direction
236 236 236 235 234 234 235 238 241 243 244 244 246 248 248 249 250 250 249 249 249 250 251 252 253 254 256 257 259 260 262 262 263 264 265 266 267 268 269 271 273 274 275 276
237 237 238 238 237 236 236 237 240 242 243 243 244 246 248 249 250 250 250 250 250 250 251 252 253 255 256 258 260 261 262 263 264 264 265 266 267 268 269 271 273 274 276 277
238 237 239 239 238 239 238 239 239 240 240 242 243 245 246 247 248 249 250 251 250 250 251 252 254 256 257 259 260 261 262 263 264 265 265 266 266 268 269 271 273 275 277 278
238 237 237 239 240 240 239 239 240 239 238 240 243 244 245 246 248 249 251 251 252 253 253 254 256 257 258 260 261 262 263 264 264 265 265 266 267 268 270 272 274 276 277 279
239 240 239 239 241 243 242 241 242 243 242 243 244 244 245 247 248 249 251 252 252 253 255 256 257 258 259 260 261 262 263 263 264 265 265 266 267 269 271 273 275 277 278 279
241 242 243 243 244 247 247 246 244 245 245 245 245 247 247 249 249 250 251 252 253 254 255 257 257 258 260 261 262 263 265 265 265 266 266 267 268 270 271 273 275 277 279 280
242 244 245 247 249 249 250 249 247 247 247 247 246 248 248 249 249 250 251 252 254 255 257 258 259 260 261 262 263 264 265 266 266 267 268 269 270 271 272 274 276 277 279 280
244 246 247 249 251 252 252 250 249 249 249 249 250 250 251 251 251 251 252 254 255 256 257 258 259 261 262 263 264 264 265 266 267 268 269 271 272 273 274 274 275 277 278 279
247 249 250 250 251 252 251 251 250 251 251 251 252 252 253 254 254 253 254 256 256 256 257 259 259 261 262 264 265 265 266 267 267 269 270 272 273 274 275 276 277 277 277 278
249 250 251 251 251 251 250 250 250 251 252 253 254 254 255 255 255 255 256 257 257 257 258 259 260 261 262 264 265 265 266 267 268 270 271 273 274 275 276 277 277 277 277 278
251 252 252 252 252 252 253 252 252 252 254 255 256 256 257 257 257 257 258 259 259 260 260 260 261 262 263 263 264 264 265 266 267 269 271 274 275 276 276 276 276 277 277 278
250 250 251 250 252 254 255 256 256 256 258 260 260 259 260 260 260 260 260 260 260 260 261 262 262 262 262 263 263 264 265 266 267 269 271 273 274 275 276 276 276 276 277 278
250 249 249 250 253 256 257 257 257 258 260 261 261 261 262 262 262 262 262 261 262 262 262 262 262 263 263 263 263 264 265 266 267 269 271 272 272 273 274 275 276 277 278 279
252 252 252 254 257 259 260 259 259 260 261 262 262 262 263 262 262 263 263 263 263 263 262 262 263 264 264 264 264 264 265 267 268 268 269 270 272 273 274 275 276 277 278 278
255 255 256 258 259 260 261 261 260 261 262 263 263 263 263 262 263 263 264 264 264 263 263 263 264 264 264 264 264 264 265 266 266 267 268 270 272 273 275 276 277 277 276 276
257 258 258 259 260 261 262 263 263 264 266 265 265 265 265 264 264 265 266 265 265 265 264 264 264 264 264 264 264 264 264 265 266 266 267 269 271 273 274 275 276 276 275 276
260 261 261 261 263 264 265 266 266 268 268 268 268 267 266 266 266 267 267 266 266 265 265 264 264 263 263 264 264 264 265 265 266 267 268 270 271 272 273 274 275 274 274 275
261 263 266 266 266 266 266 267 269 270 269 268 267 268 269 268 267 267 267 266 267 266 266 265 264 263 263 262 262 264 265 266 268 269 271 271 272 273 273 273 273 273 273 275
264 265 268 269 268 268 269 270 271 272 272 270 269 270 270 269 268 268 267 267 267 266 266 265 263 262 261 260 262 264 265 267 269 271 272 273 274 273 273 272 273 274 275 276
267 267 268 268 268 270 272 272 273 274 274 274 273 273 272 271 270 269 269 268 266 265 264 263 262 262 261 262 263 265 268 269 270 271 272 273 274 274 274 273 274 274 276 277
268 266 265 267 268 270 273 275 276 278 278 278 277 276 274 273 272 270 269 267 266 265 264 264 263 263 264 266 266 267 269 270 271 271 272 272 273 274 274 274 274 275 277 278
265 265 267 268 268 270 274 277 279 280 281 280 279 278 276 274 272 269 267 265 264 264 264 264 265 266 267 268 269 270 270 271 271 271 271 272 274 274 274 274 276 278 280 280
266 266 266 266 268 272 276 279 280 282 283 282 281 280 278 276 273 270 268 266 265 264 264 264 265 267 268 269 270 271 271 270 270 270 271 273 274 275 275 276 278 280 280 280
269 268 268 269 272 274 277 280 283 285 286 286 285 282 279 277 275 273 271 270 268 266 266 267 268 268 268 269 269 269 270 270 271 271 272 273 274 274 276 278 279 280 279 278
270 270 271 274 275 277 280 283 285 286 288 289 288 285 280 278 277 275 273 272 270 269 268 268 268 269 268 267 268 268 267 268 269 269 270 272 273 275 278 279 279 279 278 277
271 270 272 274 277 280 283 285 286 287 289 289 289 285 281 279 278 277 274 271 271 271 269 269 269 269 269 269 267 266 265 266 266 268 270 272 274 275 277 277 277 276 277 277
273 272 272 273 276 280 283 285 286 286 287 287 287 284 281 280 279 277 274 273 272 272 272 272 270 268 268 268 266 264 264 264 265 267 269 271 273 275 276 275 274 275 275 275